Ironwood, MI

8:01 AM CDT on June 24, 2017 (GMT -0500)
Gogebic-Iron County

Weather History for KIWD - July, 2014

Change the Weather History Date:

Thursday, July 3, 2014

  Actual Average Record
Temperature  
Mean Temperature 56 °F -  
Max Temperature 68 °F 72 °F 87 °F (2010)
Min Temperature 46 °F 52 °F 42 °F (2013)
Degree Days  
Heating Degree Days 9    
Growing Degree Days 6 (Base 50)    
Moisture  
Dew Point 46 °F    
Average Humidity 71    
Maximum Humidity 87    
Minimum Humidity 49    
Precipitation  
Precipitation 0.00 in - - ()
Sea Level Pressure  
Sea Level Pressure 30.09 in    
Wind  
Wind Speed 3 mph (WNW)    
Max Wind Speed 10 mph    
Max Gust Speed -    
Visibility 10 miles    
Events      
Averages and records for this station are not official NWS values.
T = Trace of Precipitation, MM = Missing Value Source: NWS Daily Summary

Daily Weather History Graph

Daily Weather History Graph

Search for Another Location

Airport or City:

Trip Planner

Search our weather history database for the weather conditions in past years. The results will help you decide how hot, cold, wet, or windy it might be!

Date:

Astronomy

Jul. 03, 2014 Rise Set
Actual Time 5:12 AM CDT 8:56 PM CDT
Civil Twilight 4:33 AM CDT 9:35 PM CDT
Nautical Twilight 3:41 AM CDT 10:27 PM CDT
Astronomical Twilight 2:28 AM CDT 11:40 PM CDT
Moon 11:34 AM CDT (7/3) 11:54 PM CDT (7/3)
Length of Visible Light 17h 01m
Length of Day
15h 43m
Waxing Crescent, 33% of the Moon is Illuminated
Jul 3
Waxing Crescent
Jul 5
First Quarter
Jul 12
Full
Jul 18
Last Quarter
Jul 26
New

Hourly Weather History & Observations

Time (CDT) Temp. Windchill Dew Point Humidity Pressure Visibility Wind Dir Wind Speed Gust Speed Precip Events Conditions
3:15 AM 46.4 °F - 41.0 °F 81% 30.05 in 10.0 mi Calm Calm - N/A   Clear
3:35 AM 46.4 °F - 39.2 °F 76% 30.04 in 10.0 mi Calm Calm - N/A   Clear
3:55 AM 46.4 °F - 41.0 °F 81% 30.05 in 10.0 mi Calm Calm - N/A   Mostly Cloudy
4:15 AM 46.4 °F - 42.8 °F 87% 30.05 in 10.0 mi Calm Calm - N/A   Overcast
4:35 AM 46.4 °F - 42.8 °F 87% 30.06 in 10.0 mi Calm Calm - N/A   Overcast
4:55 AM 48.2 °F - 42.8 °F 82% 30.06 in 10.0 mi Calm Calm - N/A   Scattered Clouds
5:15 AM 46.4 °F - 42.8 °F 87% 30.07 in 10.0 mi Calm Calm - N/A   Mostly Cloudy
5:35 AM 46.4 °F - 42.8 °F 87% 30.07 in 10.0 mi Calm Calm - N/A   Mostly Cloudy
5:55 AM 46.4 °F 44.3 °F 42.8 °F 87% 30.08 in 10.0 mi West 4.6 mph - N/A   Mostly Cloudy
6:15 AM 48.2 °F - 42.8 °F 82% 30.08 in 10.0 mi West 4.6 mph - N/A   Mostly Cloudy
6:35 AM 48.2 °F - 44.6 °F 87% 30.09 in 10.0 mi WSW 4.6 mph - N/A   Mostly Cloudy
6:55 AM 51.8 °F - 44.6 °F 76% 30.09 in 10.0 mi West 5.8 mph - N/A   Mostly Cloudy
7:15 AM 51.8 °F - 44.6 °F 76% 30.10 in 10.0 mi West 4.6 mph - N/A   Mostly Cloudy
7:35 AM 53.6 °F - 46.4 °F 77% 30.10 in 10.0 mi West 5.8 mph - N/A   Mostly Cloudy
7:55 AM 55.4 °F - 46.4 °F 72% 30.10 in 10.0 mi WSW 5.8 mph - N/A   Mostly Cloudy
8:15 AM 57.2 °F - 48.2 °F 72% 30.10 in 10.0 mi West 5.8 mph - N/A   Partly Cloudy
8:55 AM 62.6 °F - 48.2 °F 59% 30.11 in 10.0 mi WNW 5.8 mph - N/A   Clear
9:15 AM 62.6 °F - 48.2 °F 59% 30.11 in 10.0 mi NNW 5.8 mph - N/A   Clear
9:35 AM 62.6 °F - 48.2 °F 59% 30.11 in 10.0 mi NW 4.6 mph - N/A   Scattered Clouds
9:55 AM 64.4 °F - 50.0 °F 59% 30.11 in 10.0 mi NW 5.8 mph - N/A   Partly Cloudy
10:15 AM 64.4 °F - 50.0 °F 59% 30.12 in 10.0 mi West 6.9 mph - N/A   Clear
10:35 AM 66.2 °F - 50.0 °F 56% 30.12 in 10.0 mi West 8.1 mph - N/A   Clear
10:55 AM 66.2 °F - 50.0 °F 56% 30.12 in 10.0 mi NNW 9.2 mph - N/A   Clear
11:15 AM 66.2 °F - 50.0 °F 56% 30.13 in 10.0 mi WNW 8.1 mph - N/A   Clear
11:35 AM 66.2 °F - 48.2 °F 52% 30.13 in 10.0 mi WNW 10.4 mph - N/A   Clear
11:55 AM 66.2 °F - 50.0 °F 56% 30.13 in 10.0 mi WNW 9.2 mph - N/A   Clear
12:15 PM 68.0 °F - 48.2 °F 49% 30.13 in 10.0 mi WNW 9.2 mph - N/A   Clear